TimeEDT,TemperatureF,Dew PointF,Humidity,Sea Level PressureIn,VisibilityMPH,Wind Direction,Wind SpeedMPH,Gust SpeedMPH,PrecipitationIn,Events,Conditions,WindDirDegrees,DateUTC
12:47 AM,46.4,37.4,71,30.18,10.0,West,5.8,-,N/A,,Overcast,270,2012-10-08 04:47:00
12:56 AM,46.0,39.0,76,30.19,10.0,West,5.8,-,N/A,,Overcast,270,2012-10-08 04:56:00
1:34 AM,44.6,39.2,81,30.19,10.0,WSW,3.5,-,N/A,,Mostly Cloudy,250,2012-10-08 05:34:00
1:56 AM,44.1,39.0,82,30.21,10.0,West,5.8,-,N/A,,Mostly Cloudy,270,2012-10-08 05:56:00
2:56 AM,42.1,39.0,89,30.19,10.0,WNW,4.6,-,N/A,,Clear,290,2012-10-08 06:56:00
3:56 AM,41.0,37.9,89,30.19,10.0,West,3.5,-,N/A,,Clear,260,2012-10-08 07:56:00
4:56 AM,39.9,37.0,89,30.22,10.0,WSW,5.8,-,N/A,,Clear,250,2012-10-08 08:56:00
5:56 AM,39.0,36.0,89,30.25,10.0,West,3.5,-,N/A,,Clear,280,2012-10-08 09:56:00
6:56 AM,41.0,37.0,86,30.26,10.0,WSW,5.8,-,N/A,,Clear,250,2012-10-08 10:56:00
7:56 AM,43.0,37.9,82,30.28,10.0,WSW,3.5,-,N/A,,Clear,250,2012-10-08 11:56:00
8:56 AM,45.0,39.0,80,30.29,10.0,SW,4.6,-,N/A,,Clear,230,2012-10-08 12:56:00
9:56 AM,46.9,37.0,68,30.30,10.0,North,3.5,-,N/A,,Clear,350,2012-10-08 13:56:00
10:56 AM,48.0,37.9,68,30.28,10.0,Variable,4.6,-,N/A,,Clear,0,2012-10-08 14:56:00
11:56 AM,48.9,37.9,66,30.30,10.0,Calm,Calm,-,N/A,,Clear,0,2012-10-08 15:56:00
12:56 PM,50.0,37.9,63,30.30,10.0,Calm,Calm,-,N/A,,Mostly Cloudy,0,2012-10-08 16:56:00
1:56 PM,50.0,37.9,63,30.28,10.0,Calm,Calm,-,N/A,,Overcast,0,2012-10-08 17:56:00
2:10 PM,50.0,37.4,62,30.27,2.0,Calm,Calm,-,N/A,,Haze,0,2012-10-08 18:10:00
2:19 PM,50.0,39.2,66,30.27,10.0,Calm,Calm,-,N/A,,Overcast,0,2012-10-08 18:19:00
2:56 PM,50.0,39.9,68,30.29,10.0,SW,6.9,-,N/A,,Overcast,220,2012-10-08 18:56:00
4:56 PM,46.9,39.9,77,30.29,10.0,WSW,5.8,-,0.00,Rain,Light Rain,240,2012-10-08 20:56:00
5:56 PM,46.0,41.0,83,30.29,10.0,West,3.5,-,0.02,Rain,Light Rain,280,2012-10-08 21:56:00
6:56 PM,46.0,42.1,86,30.28,10.0,Calm,Calm,-,0.01,Rain,Light Rain,0,2012-10-08 22:56:00
7:56 PM,46.0,42.1,86,30.27,10.0,Calm,Calm,-,0.00,,Overcast,0,2012-10-08 23:56:00
8:56 PM,46.0,43.0,89,30.27,10.0,Calm,Calm,-,0.00,,Overcast,0,2012-10-09 00:56:00
10:56 PM,46.9,41.0,80,30.25,10.0,Variable,5.8,-,N/A,,Mostly Cloudy,0,2012-10-09 02:56:00
11:56 PM,45.0,43.0,93,30.25,10.0,Calm,Calm,-,N/A,,Overcast,0,2012-10-09 03:56:00